Location: Newark
(44.6768°N, 22.5302°E)
Time: 10:53:18
(UTC+00:00)

STRAND 1 - Visible Passes

Search period start: 25 June 2022 00:00
Search period end: 05 July 2022 00:00
Orbit: 768 x 780 km, 98.4° (Epoch: 24 June)

Date Brightness Start Highest point End Pass type
(mag) Time Alt. Az. Time Alt. Az. Time Alt. Az.
26 Jun ? 19:16:00 10° NNW 19:18:56 15° WNW 19:21:52 10° W visible
29 Jun ? 19:12:29 10° NNW 19:15:37 16° WNW 19:18:43 10° W visible
02 Jul ? 19:08:59 10° NNW 19:12:16 17° WNW 19:15:32 10° W visible
